Location: Gwatt
(46.7204°N, 7.6223°E)
Time: 01:31:00
(UTC+00:00)

Cosmos 1898 Rocket - Pass Details

Date: 18 September 2020
Orbit: 753 x 784 km, 74.0° (Epoch: 31 October)

Event Time Altitude Azimuth Distance (km) Brightness Sun altitude
Rises 18:23:43 0° 203° (SSW) 3,193 6.9 -9.2°
Reaches altitude 10° 18:26:05 10° 204° (SSW) 2,271 6.1 -9.6°
Maximum altitude 18:31:14 82° 292° (WNW) 767 3.6 -10.4°
Drops below altitude 10° 18:36:26 10° 21° (NNE) 2,292 5.9 -11.3°
Sets 18:38:49 0° 22° (NNE) 3,224 6.7 -11.7°
